Location: Apollinopolis Magna
(24.9792°N, 32.8772°E)
Time: 11:29:38
(UTC+00:00)

Meteor 2-12 Rocket - Pass Details

Date: 02 March 2021
Orbit: 936 x 957 km, 82.5° (Epoch: 16 April)

Event Time Altitude Azimuth Distance (km) Brightness Sun altitude
Rises 16:42:22 0° 184° (S) 3,579 7.5 -12.4°
Reaches altitude 10° 16:44:50 10° 184° (S) 2,638 6.8 -12.9°
Maximum altitude 16:50:51 90° 163° (SSE) 942 4.4 -14.3°
Drops below altitude 10° 16:56:57 10° 5° (N) 2,657 6.7 -15.7°
Sets 16:59:26 0° 6° (N) 3,607 7.4 -16.2°
